TimeEST,TemperatureF,Dew PointF,Humidity,Sea Level PressureIn,VisibilityMPH,Wind Direction,Wind SpeedMPH,Gust SpeedMPH,PrecipitationIn,Events,Conditions,WindDirDegrees,DateUTC
12:53 AM,70.0,68.0,93,29.95,7.0,South,9.2,-,N/A,,Partly Cloudy,190,2013-02-13 05:53:00
1:53 AM,70.0,68.0,93,29.95,7.0,South,8.1,-,N/A,,Clear,190,2013-02-13 06:53:00
2:07 AM,69.8,68.0,94,29.95,7.0,South,9.2,-,N/A,,Scattered Clouds,190,2013-02-13 07:07:00
2:20 AM,71.6,69.8,94,29.94,7.0,South,9.2,-,N/A,,Mostly Cloudy,190,2013-02-13 07:20:00
2:53 AM,71.1,69.1,93,29.93,8.0,South,8.1,-,N/A,,Overcast,190,2013-02-13 07:53:00
3:48 AM,71.6,68.0,88,29.93,8.0,South,9.2,-,N/A,,Scattered Clouds,190,2013-02-13 08:48:00
3:53 AM,71.1,68.0,90,29.92,8.0,South,10.4,-,N/A,,Scattered Clouds,190,2013-02-13 08:53:00
4:10 AM,71.6,69.8,94,29.92,8.0,South,10.4,-,N/A,,Mostly Cloudy,190,2013-02-13 09:10:00
4:53 AM,71.1,69.1,93,29.92,10.0,South,11.5,-,N/A,,Overcast,190,2013-02-13 09:53:00
5:14 AM,71.6,69.8,94,29.92,10.0,SSW,13.8,-,N/A,,Overcast,200,2013-02-13 10:14:00
5:53 AM,71.1,69.1,93,29.93,10.0,SSW,9.2,-,N/A,,Overcast,200,2013-02-13 10:53:00
6:48 AM,71.6,68.0,88,29.93,9.0,South,11.5,-,N/A,,Overcast,180,2013-02-13 11:48:00
7:49 AM,71.6,68.0,88,29.95,10.0,SSW,11.5,-,N/A,,Overcast,200,2013-02-13 12:49:00
7:53 AM,71.1,68.0,90,29.95,10.0,South,10.4,-,N/A,,Overcast,190,2013-02-13 12:53:00
8:53 AM,73.0,69.1,87,29.95,10.0,South,16.1,-,N/A,,Overcast,190,2013-02-13 13:53:00
9:24 AM,73.4,69.8,88,29.96,10.0,SSW,10.4,-,N/A,,Unknown,200,2013-02-13 14:24:00
9:53 AM,77.0,69.1,76,29.95,10.0,SSW,18.4,23.0,N/A,,Scattered Clouds,200,2013-02-13 14:53:00
10:53 AM,81.0,68.0,65,29.95,10.0,South,18.4,25.3,N/A,,Unknown,190,2013-02-13 15:53:00
11:53 AM,82.9,66.9,58,29.92,10.0,SW,19.6,23.0,N/A,,Overcast,220,2013-02-13 16:53:00
12:53 PM,80.1,66.9,64,29.91,10.0,SW,19.6,25.3,N/A,,Overcast,230,2013-02-13 17:53:00
1:53 PM,73.0,66.9,81,29.89,4.0,West,16.1,25.3,0.04,Rain,Light Rain,260,2013-02-13 18:53:00
2:33 PM,69.8,68.0,94,29.90,1.8,WSW,15.0,-,0.17,Rain,Heavy Rain,240,2013-02-13 19:33:00
2:40 PM,69.8,68.0,94,29.90,3.0,WSW,12.7,20.7,0.19,Rain,Light Rain,240,2013-02-13 19:40:00
2:53 PM,70.0,66.9,90,29.89,6.0,SW,11.5,25.3,0.21,Rain,Light Rain,230,2013-02-13 19:53:00
3:53 PM,69.1,66.9,93,29.88,10.0,SW,5.8,-,0.00,Rain,Light Rain,220,2013-02-13 20:53:00
4:05 PM,69.8,68.0,94,29.89,1.8,SW,8.1,-,0.11,Rain,Light Rain,220,2013-02-13 21:05:00
4:12 PM,69.8,68.0,94,29.88,1.0,SW,6.9,-,0.17,Rain,Heavy Rain,220,2013-02-13 21:12:00
4:17 PM,69.8,66.2,88,29.89,2.0,WSW,8.1,-,0.17,Rain,Light Rain,240,2013-02-13 21:17:00
4:25 PM,69.8,68.0,94,29.89,1.5,WSW,5.8,-,0.25,Rain,Heavy Rain,250,2013-02-13 21:25:00
4:34 PM,69.8,68.0,94,29.88,2.5,SW,3.5,-,0.28,Rain,Rain,220,2013-02-13 21:34:00
4:44 PM,69.8,68.0,94,29.89,1.5,West,8.1,-,0.36,Rain,Heavy Rain,270,2013-02-13 21:44:00
4:50 PM,69.8,68.0,94,29.89,2.0,West,9.2,-,0.36,Rain,Light Rain,280,2013-02-13 21:50:00
4:53 PM,69.1,68.0,96,29.88,4.0,West,9.2,-,0.36,Rain,Light Rain,280,2013-02-13 21:53:00
5:00 PM,69.8,68.0,94,29.88,10.0,West,10.4,-,0.00,,Overcast,280,2013-02-13 22:00:00
5:04 PM,69.8,68.0,94,29.88,10.0,WNW,13.8,18.4,0.00,,Overcast,290,2013-02-13 22:04:00
5:23 PM,69.8,68.0,94,29.89,10.0,WNW,10.4,-,0.00,,Overcast,290,2013-02-13 22:23:00
5:33 PM,69.8,68.0,94,29.90,10.0,WNW,10.4,-,0.00,,Mostly Cloudy,290,2013-02-13 22:33:00
5:44 PM,69.8,68.0,94,29.90,10.0,NW,15.0,20.7,0.00,,Overcast,310,2013-02-13 22:44:00
5:53 PM,68.0,64.9,90,29.90,10.0,NW,15.0,24.2,0.00,,Overcast,320,2013-02-13 22:53:00
6:08 PM,66.2,62.6,88,29.92,10.0,NW,9.2,-,N/A,,Overcast,320,2013-02-13 23:08:00
6:31 PM,64.4,60.8,88,29.92,10.0,NNW,6.9,-,0.02,Rain,Light Rain,330,2013-02-13 23:31:00
6:53 PM,64.9,61.0,87,29.92,10.0,NW,4.6,-,0.02,,Overcast,310,2013-02-13 23:53:00
7:53 PM,64.0,62.1,93,29.97,8.0,SW,3.5,-,0.02,Rain,Light Rain,230,2013-02-14 00:53:00
8:53 PM,64.0,59.0,84,29.96,10.0,NNE,4.6,-,0.02,,Mostly Cloudy,30,2013-02-14 01:53:00
9:53 PM,63.0,61.0,93,29.98,10.0,Calm,Calm,-,0.00,,Overcast,0,2013-02-14 02:53:00
10:53 PM,63.0,61.0,93,30.00,10.0,South,4.6,-,N/A,,Overcast,190,2013-02-14 03:53:00
11:53 PM,62.1,61.0,96,30.00,10.0,Calm,Calm,-,0.00,,Mostly Cloudy,0,2013-02-14 04:53:00